Location: Newark
(48.9320°N, 2.2664°E)
Time: 09:32:13
(UTC+00:00)

A-11 Canister half - All Passes

Search period start: 28 February 2020 00:00
Search period end: 09 March 2020 00:00
Orbit: 1524 x 1684 km, 47.3° (Epoch: 27 February)

Date Brightness Start Highest point End Pass type
(mag) Time Alt. Az. Time Alt. Az. Time Alt. Az.
28 Feb - 06:09:29 10° SSE 06:15:07 17° SE 06:20:40 10° E daylight
28 Feb - 08:09:19 10° SW 08:18:22 48° SSE 08:27:11 10° ENE daylight
28 Feb - 10:13:18 10° WSW 10:22:47 79° S 10:32:05 10° E daylight
28 Feb - 12:18:17 10° W 12:27:39 75° SSW 12:36:54 10° ESE daylight
28 Feb - 14:23:22 10° WNW 14:31:48 41° SW 14:40:15 10° SSE daylight
28 Feb - 16:31:40 10° WSW 16:34:40 12° WSW 16:37:41 10° SW daylight
29 Feb - 05:48:17 10° SSE 05:53:35 16° SE 05:58:48 10° E visible
29 Feb - 07:47:46 10° SW 07:56:46 47° SSE 08:05:33 10° ENE daylight
29 Feb - 09:51:39 10° WSW 10:01:09 78° S 10:10:28 10° E daylight
29 Feb - 11:56:38 10° W 12:06:01 76° SSW 12:15:17 10° ESE daylight
29 Feb - 14:01:43 10° WNW 14:10:14 42° SW 14:18:45 10° SSE daylight
29 Feb - 16:09:30 10° W 16:13:09 13° SW 16:16:49 10° SSW daylight
01 Mar - 05:27:07 10° SSE 05:32:03 15° SE 05:36:54 10° E visible
01 Mar - 07:26:13 10° SW 07:35:11 45° SE 07:43:54 10° ENE daylight
01 Mar - 09:30:01 10° WSW 09:39:31 77° SSE 09:48:51 10° E daylight
01 Mar - 11:35:00 10° W 11:44:23 77° SSW 11:53:40 10° ESE daylight
01 Mar - 13:40:02 10° WNW 13:48:39 44° SW 13:57:14 10° SSE daylight
01 Mar - 15:47:27 10° W 15:51:38 14° SW 15:55:51 10° SSW daylight
02 Mar - 05:06:00 10° SSE 05:10:31 14° SE 05:14:58 10° E visible
02 Mar - 07:04:40 10° SSW 07:13:35 44° SE 07:22:16 10° ENE daylight
02 Mar - 09:08:21 10° WSW 09:17:54 76° SSE 09:27:13 10° E daylight
02 Mar - 11:13:20 10° W 11:22:46 78° SSW 11:32:03 10° ESE daylight
02 Mar - 13:18:24 10° WNW 13:27:05 45° SW 13:35:43 10° SE daylight
02 Mar - 15:25:28 10° W 15:30:07 15° SW 15:34:46 10° SSW daylight
03 Mar - 04:44:58 10° SSE 04:48:59 13° SE 04:52:57 10° E visible
03 Mar - 06:43:08 10° SSW 06:52:00 42° SE 07:00:38 10° ENE daylight
03 Mar - 08:46:42 10° WSW 08:56:17 75° SSE 09:05:35 10° E daylight
03 Mar - 10:51:41 10° W 11:01:09 78° S 11:10:26 10° ESE daylight
03 Mar - 12:56:44 10° WNW 13:05:30 47° SSW 13:14:12 10° SE daylight
03 Mar - 15:03:33 10° W 15:08:36 16° SW 15:13:38 10° SSW daylight
04 Mar - 04:24:02 10° SE 04:27:27 12° ESE 04:30:50 10° ESE visible
04 Mar - 06:21:36 10° SSW 06:30:24 41° SE 06:38:59 10° ENE daylight
04 Mar - 08:25:04 10° WSW 08:34:38 74° SSE 08:43:57 10° E daylight
04 Mar - 10:30:02 10° W 10:39:31 79° S 10:48:49 10° ESE daylight
04 Mar - 12:35:05 10° WNW 12:43:55 49° SSW 12:52:40 10° SE daylight
04 Mar - 14:41:40 10° W 14:47:04 17° SW 14:52:28 10° SSW daylight
05 Mar - 04:03:16 10° SE 04:05:55 11° ESE 04:08:34 10° ESE visible
05 Mar - 06:00:05 10° SSW 06:08:50 39° SE 06:17:20 10° ENE daylight
05 Mar - 08:03:25 10° WSW 08:13:01 73° SSE 08:22:20 10° E daylight
05 Mar - 10:08:22 10° W 10:17:53 80° S 10:27:12 10° ESE daylight
05 Mar - 12:13:26 10° WNW 12:22:20 50° SSW 12:31:09 10° SE daylight
05 Mar - 14:19:50 10° W 14:25:33 18° SW 14:31:16 10° SSW daylight
06 Mar - 03:42:53 10° SE 03:44:24 10° ESE 03:45:54 10° ESE visible
06 Mar - 05:38:33 10° SSW 05:47:15 38° SE 05:55:41 10° ENE visible
06 Mar - 07:41:46 10° WSW 07:51:23 72° SSE 08:00:43 10° E daylight
06 Mar - 09:46:42 10° W 09:56:15 80° S 10:05:35 10° ESE daylight
06 Mar - 11:51:46 10° WNW 12:00:45 52° SSW 12:09:36 10° SE daylight
06 Mar - 13:58:00 10° W 14:04:01 19° SW 14:10:01 10° S daylight
07 Mar - 05:17:03 10° SSW 05:25:40 36° SE 05:34:02 10° ENE visible
07 Mar - 07:20:08 10° WSW 07:29:45 71° SSE 07:39:05 10° E daylight
07 Mar - 09:25:03 10° W 09:34:37 81° S 09:43:57 10° E daylight
07 Mar - 11:30:06 10° WNW 11:39:09 54° SSW 11:48:04 10° SE daylight
07 Mar - 13:36:12 10° W 13:42:30 21° SW 13:48:45 10° S daylight
08 Mar - 04:55:33 10° SSW 05:04:05 35° SE 05:12:22 10° ENE visible
08 Mar - 06:58:29 10° WSW 07:08:08 70° SSE 07:17:28 10° E daylight
08 Mar - 09:03:23 10° W 09:12:59 81° S 09:22:20 10° E daylight
08 Mar - 11:08:27 10° WNW 11:17:34 55° SSW 11:26:31 10° SE daylight
08 Mar - 13:14:25 10° W 13:20:57 22° SW 13:27:27 10° S daylight
